{"data":{"norad_id":60415,"epoch":"2026-09-21T17:09:09.520992Z","epoch_age_seconds":80607,"freshness":"FRESH","line1":"1 60415U 24141T   26264.71469353 -.00000867  00000+0 -14548-4 0  9994","line2":"2 60415  53.1602  47.7666 0001108  88.0084 272.1046 15.34386353119654","mean_motion":15.34386353,"eccentricity":0.0001108,"inclination_deg":53.1602,"raan_deg":47.7666,"arg_perigee_deg":88.0084,"mean_anomaly_deg":272.1046,"bstar":-1.4548e-5,"rev_number":11965,"period_min":93.848592773557,"perigee_km":461.98583267482,"apogee_km":463.50177186061,"semimajor_km":6840.8808022677,"source":"CELESTRAK","updated_at":"2026-09-22T09:00:49.232301Z"}}